This demonstration page uses our WeatherBlox Daily Observations layout. Learn more.

Left ArrowRight Arrow

39.29038, -76.61219

Hourly Observations for May 19, 2022

Temp ( °F °C ) Dew Point ( °F °C ) Humidity (%) Winds ( mph kmh ) Pressure ( in mb ) Visibility ( mi km ) Precip ( " mm )
12:54 am 00:54 Cloudy with Light Rain 64 17.8 55 12.8 73 73 SSE 7 11 29.80 1009 10 16 0.01 0.25
1:54 am 01:54 Cloudy with Rain 61 16.1 56 13.3 84 84 Calm 29.79 1009 5 8 0.03 0.76
2:54 am 02:54 Cloudy with Light Rain 61 16.1 57 13.9 87 87 E 6 9 29.76 1008 8 13 0.08 2.03
3:54 am 03:54 Cloudy with Light Rain 60 15.6 57 13.9 90 90 ENE 8 13 29.72 1007 10 16 0.02 0.51
4:44 am 04:44 Cloudy 60 15.6 57 13.9 90 90 E 8 13 29.71 1006 10 16 0.00 0.00
4:54 am 04:54 Cloudy 60 15.6 57 13.9 90 90 E 8 13 29.71 1006 10 16 0.00 0.00
5:54 am 05:54 Cloudy 59 15 56 13.3 90 90 N 5 7 29.73 1007 10 16 0.00 0.00
6:10 am 06:10 Cloudy 59 15 56 13.3 90 90 VRB 5 7 29.73 1007 10 16 0.00 0.00
6:49 am 06:49 Mostly Cloudy 61 16 55 13 83 83 N 5 7 29.73 1007 10 16 0.00 0.00
6:54 am 06:54 Mostly Cloudy 60 15.6 56 13.3 86 86 N 5 7 29.73 1007 10 16 0.00 0.00
7:54 am 07:54 Mostly Cloudy 62 16.7 57 13.9 84 84 Calm 29.75 1007 10 16 0.00 0.00
8:48 am 08:48 Mostly Cloudy 64 18 59 15 83 83 W 6 9 29.75 1007 10 16 0.00 0.00
8:54 am 08:54 Mostly Cloudy 65 18.3 59 15 81 81 W 6 9 29.75 1008 10 16 0.00 0.00
9:54 am 09:54 Partly Cloudy 68 20 60 15.6 76 76 W 5 7 29.75 1008 10 16 0.00 0.00
10:22 am 10:22 Mostly Cloudy 69 20.6 61 16.1 76 76 WNW 8 13 29.77 1008 10 16 0.00 0.00
10:47 am 10:47 Partly Cloudy 72 22.2 61 16.1 68 68 WNW 9 15 29.75 1008 10 16 0.00 0.00
10:54 am 10:54 Partly Cloudy 72 22.2 61 16.1 68 68 W 12 19 29.75 1008 10 16 0.00 0.00
11:54 am 11:54 Partly Cloudy 75 23.9 61 16.1 62 62 WNW 12 19 29.75 1008 10 16 0.00 0.00
12:54 pm 12:54 Partly Cloudy 77 25 61 16.1 58 58 W 14 22 29.74 1007 10 16 0.00 0.00
1:54 pm 13:54 Mostly Cloudy 79 26.1 61 16.1 54 54 W 14 22 29.73 1007 10 16 0.00 0.00
2:54 pm 14:54 Mostly Cloudy 82 27.8 61 16.1 49 49 W 14 22 29.72 1006 10 16 0.00 0.00
3:54 pm 15:54 Mostly Cloudy 82 27.8 59 15 46 46 WNW 10 17 29.72 1006 10 16 0.00 0.00
4:54 pm 16:54 Partly Cloudy 83 28.3 57 13.9 41 41 W 14 22 29.71 1006 10 16 0.00 0.00
5:54 pm 17:54 Partly Cloudy 83 28.3 55 12.8 38 38 W 15 24 29.72 1006 10 16 0.00 0.00
6:54 pm 18:54 Partly Cloudy 81 27.2 54 12.2 39 39 WNW 10 17 29.72 1007 10 16 0.00 0.00
7:54 pm 19:54 Partly Cloudy 77 25 55 12.8 47 47 W 5 7 29.74 1007 10 16 0.00 0.00
8:54 pm 20:54 Partly Cloudy 73 22.8 56 13.3 55 55 WSW 3 6 29.77 1008 10 16 0.00 0.00
9:54 pm 21:54 Partly Cloudy 71 21.7 57 13.9 61 61 Calm 29.80 1009 10 16 0.00 0.00
10:54 pm 22:54 Partly Cloudy 66 18.9 58 14.4 75 75 Calm 29.81 1010 10 16 0.00 0.00
11:54 pm 23:54 Partly Cloudy 64 17.8 58 14.4 81 81 W 3 6 29.81 1010 10 16 0.00 0.00

Powered by AerisWeather